Аэропорт
Бухта Провидения (UHMD)

 UHMD / PVS
ЗЦ Хабаровск
Магадан (UHMM)
Магадан (UHMM)
 64.37810, -173.24300  / 72 ft

 TAF UHMD 260141Z 2603/2609 36009G14MPS 4000 -SN BKN015 TEMPO 2603/2609 0800 +SHSN BLSN SCT005 BKN010CB
uhmd_aip_1605
показать схемы
Название сценария Тип сценария Flight Simulator 9 Flight Simulator X Prepar3D v2 Prepar3D v3 Prepar3D v4 Prepar3D v5 xPlane
uhmd-scenery-fsx_p3d-1411 бесплатный


2020 © VATRUS division (Privacy Policy)